Longville, MN

7:07 PM CST on January 16, 2017 (GMT -0600)
Longville Municipal

Weather History for KXVG - May, 2014

Change the Weather History Date:

Saturday, May 24, 2014

  Actual Average (KPWC) Record (KPWC)
Temperature  
Mean Temperature 70 °F -  
Max Temperature 84 °F 65 °F 84 °F (2014)
Min Temperature 57 °F 42 °F 30 °F (2004)
Cooling Degree Days 6    
Growing Degree Days 20 (Base 50)    
Moisture  
Dew Point 47 °F    
Average Humidity 39    
Maximum Humidity 67    
Minimum Humidity 27    
Precipitation  
Precipitation 0.00 in - - ()
Sea Level Pressure  
Sea Level Pressure 30.05 in    
Wind  
Wind Speed 8 mph (South)    
Max Wind Speed 15 mph    
Max Gust Speed 21 mph    
Visibility 10 miles    
Events Rain    
Averages and records for this station are not official NWS values.
T = Trace of Precipitation, MM = Missing Value Source: NWS Daily Summary

Daily Weather History Graph

Daily Weather History Graph

Search for Another Location

Airport or City:

Trip Planner

Search our weather history database for the weather conditions in past years. The results will help you decide how hot, cold, wet, or windy it might be!

Date:

Astronomy

May. 24, 2014 Rise Set
Actual Time 5:31 AM CDT 8:56 PM CDT
Civil Twilight 4:54 AM CDT 9:33 PM CDT
Nautical Twilight 4:05 AM CDT 10:23 PM CDT
Astronomical Twilight 3:01 AM CDT 11:27 PM CDT
Moon 3:18 AM CDT (5/24) 4:38 PM CDT (5/24)
Length of Visible Light 16h 39m
Length of Day
15h 24m
Waning Crescent, 18% of the Moon is Illuminated
May 24
Waning Crescent
May 28
New
Jun 5
First Quarter
Jun 12
Full
Jun 19
Last Quarter

Hourly Weather History & Observations

Time (CDT) Temp. Dew Point Humidity Pressure Visibility Wind Dir Wind Speed Gust Speed Precip Events Conditions
12:40 AM 60.8 °F 48.2 °F 63% 30.11 in 10.0 mi SSE 4.6 mph - N/A   Overcast
12:58 AM 62.6 °F 46.4 °F 55% 30.10 in 10.0 mi SSE 4.6 mph - N/A   Overcast
1:01 AM 62.6 °F 46.4 °F 55% 30.10 in 10.0 mi SSE 4.6 mph - N/A   Overcast
2:59 AM 64.4 °F 44.6 °F 49% 30.09 in 10.0 mi South 6.9 mph - N/A   Overcast
3:02 AM 64.4 °F 44.6 °F 49% 30.09 in 10.0 mi SSE 5.8 mph - N/A   Overcast
3:18 AM 64.4 °F 44.6 °F 49% 30.09 in 10.0 mi SSE 8.1 mph - N/A   Overcast
4:00 AM 62.6 °F 44.6 °F 52% 30.09 in 10.0 mi SSE 10.4 mph - N/A Rain Rain
4:08 AM 62.6 °F 46.4 °F 55% 30.09 in 10.0 mi SSE 9.2 mph - N/A Rain Light Rain
4:21 AM 62.6 °F 44.6 °F 52% 30.09 in 10.0 mi SSE 10.4 mph - N/A   Overcast
5:16 AM 60.8 °F 46.4 °F 59% 30.10 in 10.0 mi SSE 4.6 mph - N/A   Scattered Clouds
6:21 AM 57.2 °F 46.4 °F 67% 30.10 in 10.0 mi SE 3.5 mph - N/A   Scattered Clouds
6:55 AM 59.0 °F 46.4 °F 63% 30.09 in 10.0 mi SE 3.5 mph - N/A   Clear
8:19 AM 68.0 °F 44.6 °F 43% 30.08 in 10.0 mi SSE 5.8 mph - N/A   Clear
8:22 AM 69.8 °F 44.6 °F 40% 30.08 in 10.0 mi SSE 8.1 mph - N/A   Clear
8:36 AM 69.8 °F 44.6 °F 40% 30.08 in 10.0 mi SSE 5.8 mph - N/A   Clear
9:00 AM 71.6 °F 44.6 °F 38% 30.07 in 10.0 mi SSE 8.1 mph - N/A   Clear
9:18 AM 71.6 °F 46.4 °F 41% 30.07 in 10.0 mi SSE 8.1 mph - N/A   Clear
9:43 AM 75.2 °F 46.4 °F 36% 30.07 in 10.0 mi South 6.9 mph - N/A   Clear
9:56 AM 75.2 °F 46.4 °F 36% 30.07 in 10.0 mi SSE 8.1 mph - N/A   Clear
10:18 AM 75.2 °F 46.4 °F 36% 30.06 in 10.0 mi South 10.4 mph - N/A   Clear
10:37 AM 77.0 °F 46.4 °F 34% 30.06 in 10.0 mi South 11.5 mph 17.3 mph N/A   Clear
10:41 AM 75.2 °F 46.4 °F 36% 30.06 in 10.0 mi SSW 11.5 mph 17.3 mph N/A   Clear
11:19 AM 78.8 °F 48.2 °F 34% 30.05 in 10.0 mi South 10.4 mph - N/A   Clear
11:56 AM 80.6 °F 48.2 °F 32% 30.04 in 10.0 mi South 10.4 mph 16.1 mph N/A   Clear
12:21 PM 82.4 °F 48.2 °F 30% 30.04 in 10.0 mi SW 9.2 mph - N/A   Clear
12:40 PM 82.4 °F 46.4 °F 28% 30.04 in 10.0 mi SSW 12.7 mph 18.4 mph N/A   Clear
1:19 PM 80.6 °F 48.2 °F 32% 30.04 in 10.0 mi SSW 10.4 mph 17.3 mph N/A   Clear
1:37 PM 82.4 °F 48.2 °F 30% 30.04 in 10.0 mi SSW 12.7 mph 17.3 mph N/A   Clear
1:56 PM 82.4 °F 48.2 °F 30% 30.03 in 10.0 mi SW 11.5 mph 19.6 mph N/A   Clear
2:27 PM 84.2 °F 48.2 °F 29% 30.03 in 10.0 mi SSW 10.4 mph - N/A   Clear
2:49 PM 82.4 °F 48.2 °F 30% 30.03 in 10.0 mi SSW 13.8 mph 19.6 mph N/A   Clear
3:00 PM 84.2 °F 48.2 °F 29% 30.03 in 10.0 mi SW 10.4 mph 18.4 mph N/A   Clear
3:22 PM 84.2 °F 46.4 °F 27% 30.03 in 10.0 mi SW 15.0 mph 20.7 mph N/A   Clear
3:41 PM 84.2 °F 46.4 °F 27% 30.03 in 10.0 mi SW 12.7 mph 18.4 mph N/A   Clear
4:01 PM 82.4 °F 48.2 °F 30% 30.03 in 10.0 mi SSW 10.4 mph 19.6 mph N/A   Clear
4:20 PM 82.4 °F 48.2 °F 30% 30.03 in 10.0 mi SSW 11.5 mph 16.1 mph N/A   Clear
4:37 PM 82.4 °F 48.2 °F 30% 30.02 in 10.0 mi SSW 11.5 mph 16.1 mph N/A   Clear
5:03 PM 84.2 °F 46.4 °F 27% 30.02 in 10.0 mi South 12.7 mph 18.4 mph N/A   Clear
5:21 PM 82.4 °F 48.2 °F 30% 30.01 in 10.0 mi SSW 9.2 mph - N/A   Clear
5:41 PM 84.2 °F 46.4 °F 27% 30.01 in 10.0 mi SSW 10.4 mph 16.1 mph N/A   Clear
6:11 PM 82.4 °F 46.4 °F 28% 30.00 in 10.0 mi South 9.2 mph 16.1 mph N/A   Clear
6:16 PM 82.4 °F 46.4 °F 28% 30.00 in 10.0 mi South 11.5 mph 16.1 mph N/A   Clear
6:49 PM 80.6 °F 46.4 °F 30% 30.00 in 10.0 mi SSW 9.2 mph - N/A   Clear
7:03 PM 82.4 °F 46.4 °F 28% 29.99 in 10.0 mi South 10.4 mph - N/A   Clear
7:58 PM 78.8 °F 44.6 °F 30% 29.99 in 10.0 mi South 8.1 mph - N/A   Clear
8:00 PM 78.8 °F 44.6 °F 30% 29.99 in 10.0 mi SSE 8.1 mph - N/A   Clear
8:41 PM 73.4 °F 46.4 °F 38% 29.99 in 10.0 mi South 5.8 mph - N/A   Clear
9:09 PM 69.8 °F 48.2 °F 46% 30.00 in 10.0 mi SSE 5.8 mph - N/A   Clear
11:08 PM 64.4 °F 48.2 °F 56% 30.00 in 10.0 mi SSE 6.9 mph - N/A   Clear
11:26 PM 64.4 °F 48.2 °F 56% 30.00 in 10.0 mi SSE 5.8 mph - N/A   Clear